YO3LAW-13 Weather Reports


Display with metric or nautical units.
time (UTC)temp
F
wind
direction
speed
MPH
gust
MPH
rain 1hr
in
rain 24hr
in
rain mn
in
humidity
%
barometer
mb
20260504003044 44 146 2.0 5.0 0.00 0.00 0.00 74 1007.9
20260504002044 44 322 1.0 5.0 0.00 0.00 0.00 72 1007.6
20260504001044 45 210 0.0 2.0 0.00 0.00 0.00 70 1007.7
20260504000044 44 208 0.0 2.0 0.00 0.00 0.00 71 1007.7
20260503235044 44 309 0.0 0.0 0.00 0.00 0.00 71 1007.9
20260503234044 45 188 1.0 1.0 0.00 0.00 0.00 71 1007.9
20260503233044 45 117 0.0 2.0 0.00 0.00 0.00 71 1008.1
20260503232044 45 300 0.0 2.0 0.00 0.00 0.00 71 1008.0
20260503231044 45 119 0.0 2.0 0.00 0.00 0.00 70 1008.1
20260503230044 46 307 0.0 2.0 0.00 0.00 0.00 70 1008.1
20260503225044 46 135 2.0 2.0 0.00 0.00 0.00 69 1008.1
20260503224044 46 120 0.0 2.0 0.00 0.00 0.00 68 1008.0
20260503223044 46 184 0.0 2.0 0.00 0.00 0.00 68 1008.1
20260503222044 46 129 0.0 0.0 0.00 0.00 0.00 68 1008.3
20260503221044 46 283 0.0 0.0 0.00 0.00 0.00 68 1008.6
20260503220057 46 224 0.0 0.0 0.00 0.00 0.00 69 1008.2
20260503215057 46 175 0.0 2.0 0.00 0.00 0.00 70 1008.3
20260503214057 46 44 0.0 0.0 0.00 0.00 0.00 71 1008.5
20260503213057 46 62 0.0 0.0 0.00 0.00 0.00 71 1008.6
20260503212057 46 192 1.0 1.0 0.00 0.00 0.00 71 1008.7
20260503211057 46 38 0.0 0.0 0.00 0.00 0.00 71 1008.7
20260503210057 46 219 0.0 0.0 0.00 0.00 0.00 70 1008.8
20260503205057 47 49 0.0 0.0 0.00 0.00 0.00 69 1009.0
20260503204057 47 186 0.0 0.0 0.00 0.00 0.00 69 1008.9
20260503203057 46 315 0.0 0.0 0.00 0.00 0.00 67 1008.9
20260503202057 47 315 0.0 0.0 0.00 0.00 0.00 66 1009.2
20260503201057 47 322 0.0 0.0 0.00 0.00 0.00 65 1009.2
20260503200057 47 336 0.0 0.0 0.00 0.00 0.00 67 1009.3
20260503195057 47 44 0.0 0.0 0.00 0.00 0.00 67 1009.3
20260503194057 46 33 0.0 1.0 0.00 0.00 0.00 71 1009.3
20260503193057 46 11 0.0 0.0 0.00 0.00 0.00 76 1009.3
20260503192057 47 37 0.0 0.0 0.00 0.00 0.00 74 1009.4
20260503191057 47 157 0.0 0.0 0.00 0.00 0.00 76 1009.4
20260503190057 48 89 0.0 0.0 0.00 0.00 0.00 74 1009.2
20260503185057 48 117 0.0 0.0 0.00 0.00 0.00 69 1009.4
20260503184057 49 117 0.0 0.0 0.00 0.00 0.00 65 1009.4
20260503183057 49 117 0.0 0.0 0.00 0.00 0.00 62 1009.4
20260503182057 50 117 0.0 0.0 0.00 0.00 0.00 63 1009.3
20260503181057 51 0 0.0 0.0 0.00 0.00 0.00 62 1009.1
20260503180057 51 315 0.0 0.0 0.00 0.00 0.00 56 1009.1
20260503175057 52 345 0.0 0.0 0.00 0.00 0.00 52 1009.2
20260503174057 53 37 0.0 0.0 0.00 0.00 0.00 51 1009.1
20260503173057 54 110 0.0 0.0 0.00 0.00 0.00 50 1009.2
20260503172057 55 135 0.0 0.0 0.00 0.00 0.00 44 1009.2
20260503171057 55 199 0.0 0.0 0.00 0.00 0.00 44 1009.1
20260503131057 61 9 3.0 5.0 0.00 0.00 0.00 35 1010.0
20260503081057 55 5 5.0 9.0 0.00 0.00 0.00 40 1012.8
20260503072057 54 79 2.0 6.0 0.00 0.00 0.00 46 1012.7
20260503071057 53 16 8.0 10.0 0.00 0.00 0.00 50 1012.6
20260503055057 50 89 0.0 4.0 0.00 0.00 0.00 59 1012.7
20260503054057 50 39 3.0 4.0 0.00 0.00 0.00 58 1012.7
20260503053057 49 11 2.0 4.0 0.00 0.00 0.00 61 1012.7
20260503052057 49 355 1.0 6.0 0.00 0.00 0.00 63 1012.4
20260503051057 47 128 3.0 5.0 0.00 0.00 0.00 66 1012.6
20260503050057 46 21 3.0 8.0 0.00 0.00 0.00 68 1012.4
20260503045057 46 86 5.0 6.0 0.00 0.00 0.00 70 1012.5
20260503044057 44 21 2.0 4.0 0.00 0.00 0.00 75 1012.3
20260503043057 44 102 2.0 4.0 0.00 0.00 0.00 77 1012.3
20260503042057 42 358 3.0 6.0 0.00 0.00 0.00 80 1012.2
20260503041057 41 36 4.0 4.0 0.00 0.00 0.00 85 1012.2
20260503040057 38 345 1.0 4.0 0.00 0.00 0.00 93 1012.3
20260503035057 37 344 3.0 4.0 0.00 0.00 0.00 92 1012.1
20260503034057 37 41 2.0 3.0 0.00 0.00 0.00 92 1011.9
20260503033057 37 59 2.0 4.0 0.00 0.00 0.00 91 1011.8
20260503032057 37 351 3.0 4.0 0.00 0.00 0.00 92 1011.8
20260503031057 37 9 1.0 4.0 0.00 0.00 0.00 93 1012.0
20260503030057 36 258 2.0 3.0 0.00 0.00 0.00 92 1011.8
20260503025057 37 53 0.0 3.0 0.00 0.00 0.00 92 1011.7
20260503024057 37 62 2.0 10.0 0.00 0.00 0.00 92 1011.7
20260503023057 37 247 2.0 5.0 0.00 0.00 0.00 91 1011.4
20260503022057 37 151 0.0 4.0 0.00 0.00 0.00 93 1011.5
20260503021057 37 101 2.0 4.0 0.00 0.00 0.00 93 1011.5
20260503020057 37 8 2.0 9.0 0.00 0.00 0.00 93 1011.6
20260503015057 37 182 0.0 4.0 0.00 0.00 0.00 93 1011.6
20260503014057 37 303 0.0 7.0 0.00 0.00 0.00 94 1011.7
20260503013057 38 207 0.0 3.0 0.00 0.00 0.00 94 1011.7
20260503012057 38 37 0.0 2.0 0.00 0.00 0.00 94 1011.7
20260503011057 38 151 2.0 6.0 0.00 0.00 0.00 94 1011.8
20260503010057 38 312 4.0 6.0 0.00 0.00 0.00 93 1011.9
20260503005057 39 338 1.0 3.0 0.00 0.00 0.00 93 1011.8
20260503004057 39 58 3.0 5.0 0.00 0.00 0.00 94 1011.8